Showing default

USPWSA-DRAGOON, 64542

Orbit data source: Space-Track

USPWSA-DRAGOON, 64542 is an American payload satellite in SSO that was launched on Mon, 23 Jun 2025 UTC via an FALCON 9 launch vehicle from the Air Force Western Test Range (AFWTR). Payload-class satellites include a variety of spacecraft equipped with specific instruments for various scientific and technological missions. These include communications satellites like Starlink; space stations such as the ISS; scientific satellites like the Hubble; Earth observation satellites from companies like Planet Labs, Umbra, and HawkEye 360; GPS; miniature CubeSats for education and research; and military/defense satellites.

Loading next visibility...
Identifier
64542, 2025-135Q
Orbit
SSO
Country
Flag of USUS
Related business
Manufacturer
York Space Sys
Mission
Operational Commercial Communications
Bus & Motor
YORK, Unknown motor
Mass
~100 kg wet, ~100 kg dry
Launch date (UTC)
2025-06-23 (10 months ago)
Launch vehicle
FALCON 9
Launch site
Air Force Western Test Range (AFWTR)
Object type
Payload
Rocket body
Debris
Shape & HBR
Box + 2 Pan, 0.3 m
Radar Cross Section
0.375 m², Large (>1 m²)

Expand to show TLE details & history
Last TLE update: 8 hours ago

TLE from 8 hours ago
0 USPWSA-DRAGOON
1 64542U 25135Q   26120.03364619  .00010563  00000-0  42573-3 0  9999
2 64542  97.4645 236.2966 0002583  18.0645 342.0684 15.25017003 47589
Epoch: 2026-04-30T00:48Z
TLE epoch observation values (Epoch: 2026-04-30T00:48:27.030Z)
Latitude
-0.00005°
Longitude
6.19792°
Altitude
492.141 km
Speed
7.62 km/s
True Right ascension
15h 45m 11s
True Declination
0° 00' 00"
Sunlit
Object was in full shadow at epoch
Visualization orbit readout
Latitude
Unknown
Longitude
Unknown
Altitude
Unknown
Speed
Unknown
Apparent Right ascension
Unknown
Apparent Declination
Unknown
Sunlit
N/A
Visualization observer readout
Local Sidereal Time
16:39:49
Azimuth
Unknown
Elevation
Unknown
Doppler factor
Unknown
Orbital elements
Apogee altitude
489.469 km
Perigee altitude
485.923 km
Semi-major axis
6,865.833 km
Eccentricity
0.00026
Inclination
97.4645°
RAAN
236.2966°
Arg. of periapsis
18.0645°
True anomaly
342.05928°
Mean anomaly
342.0684°
Eccentric anomaly
342.06384°
Mean motion
3.81508 °/min
Orbital period
94.36 mins
BSTAR
0.00042573
Loading maneuver chart data...
Computing Atmospheric mass density...
Loading historical data...
Loading historical data...
Loading historical data...
Loading historical data...
Loading historical data...
Loading historical data...
Loading historical data...

Documentation

Showing up to 5 results
|